Flag Weather past 2 weeks in Damascus, Syria

Now
50 °F

Scattered clouds.


Feels Like: 48 °F
Forecast: 38 / 61 °F
Wind: 6 mph from Northwest

Location: Damascus Int. Airport

Current Time: Nov 24, 2014 at 11:35:32 AM

Latest Report: Nov 24, 2014 at 11:00 AM


Visibility: 4 mi

Pressure: 29.98 "Hg

Humidity: 88%

Dew point: 46 °F

Location of DamascusLocation

Historic Weather in Damascus — Graph

°F

Damascus temperature yesterday

Maximum temperature yesterday: 59 °F (at 1:00 PM)
Minimum temperature yesterday: 37 °F (at 7:00 AM)
Average temperature yesterday: 48 °F

Past Weeks' High & Low Weather Summary

 TemperatureHumidityPressure
High75 °F (Nov 11, 2:00 PM)100% (Nov 17, 7:00 AM)30.30 "Hg (Nov 17, 7:00 AM)
Low37 °F (Nov 23, 7:00 AM)9% (Nov 9, 3:00 PM)29.86 "Hg (Nov 16, 2:00 PM)
Average56 °F48%30.05 "Hg
* Reported Nov 9 10:00 AM — Nov 24 10:00 AM, Damascus, Weather by CustomWeather, © 2014

Note: Actual official high and low records may vary slightly from our data, if they occured in-between our weather recording intervals... More about our weather records

Advertising

Damascus weather history for previous 24 hours

 ConditionsComfort  
Time TempWeatherWind HumidityBarometerVisibility
10:00 AM
Nov 24
50 °FBroken clouds.5 mph88%29.98 "Hg2 mi
9:00 AM48 °FCool.No wind87%29.98 "Hg2 mi
8:00 AM45 °FFog.No wind93%29.98 "Hg1 mi
7:00 AM41 °FFog.2 mph100%29.95 "Hg0 mi
6:00 AM43 °FFog.No wind100%29.95 "Hg1 mi
5:00 AM43 °FPassing clouds.No wind100%29.95 "HgN/A
4:00 AM43 °FPassing clouds.No wind100%29.92 "HgN/A
3:00 AM45 °FPassing clouds.No wind93%29.92 "HgN/A
2:00 AM43 °FPassing clouds.No wind100%29.95 "HgN/A
1:00 AM43 °FPassing clouds.No wind100%29.95 "Hg4 mi
11:00 PM
Nov 23
46 °FPassing clouds.No wind93%29.95 "HgN/A
10:00 PM48 °FPassing clouds.No wind94%29.95 "HgN/A
9:00 PM50 °FPassing clouds.No wind88%29.98 "HgN/A
8:00 PM50 °FCool.5 mph94%29.98 "HgN/A
7:00 PM52 °FCool.No wind88%29.98 "HgN/A
6:00 PM52 °FPassing clouds.No wind88%29.95 "HgN/A
5:00 PM52 °FPassing clouds.No wind88%29.95 "HgN/A
4:00 PM54 °FScattered clouds.No wind88%29.98 "HgN/A
3:00 PM54 °FRain. Scattered clouds.9 mph82%29.98 "Hg4 mi
2:00 PM59 °FScattered clouds.No wind51%29.98 "HgN/A
1:00 PM59 °FScattered clouds.No wind55%29.98 "HgN/A
12:00 PM57 °FScattered clouds.No wind63%30.01 "HgN/A
11:00 AM54 °FScattered clouds.2 mph77%30.04 "HgN/A
Weather by CustomWeather, © 2014

See weather overviewHow to use our weather pages